Tracking 29489 objects as of 10-Sep-2024
HD Live streaming from Space Station
objects crossing your sky now

GALILEO 21 (2C7)

Track GALILEO 21 (2C7) now!
GALILEO 21 (2C7) is classified as:


NORAD ID: 43057
Int'l Code: 2017-079C
Perigee: 23,217.0 km
Apogee: 23,241.6 km
Inclination: 55.3 °
Period: 844.7 minutes
Semi major axis: 29600 km
RCS: Unknown
Launch date: December 12, 2017
Source: European Space Agency (ESA)
Launch site: FRENCH GUIANA (FRGUI)
Your satellite tracking list
Your tracking list is empty




NASA's NSSDC Master Catalog

Two Line Element Set (TLE):
1 43057U 17079C   24253.11359053  .00000053  00000-0  00000-0 0  9994
2 43057  55.3081 239.2848 0004157 287.9121  72.0308  1.70474208 41970
Source of the keplerian elements: AFSPC